[[{"header":{"parameterUnit":"m.s-1","parameterCategory":1,"la1":30.2991,"la2":30.254,"lo1":-89.0895,"lo2":-89.0444,"dy":0.0017,"dx":0.0017,"nx":28,"ny":28,"refTime":"2023-09-17T03:00:00:Z","depth":0,"parameterNumber":2,"parameterNumberName":"U-component_of_WINDS"},"data":[0,0,0,0,0,0,0,0,0,0,0,0,0,0,0,0,0,0,0,0,0,0,0,0,0,0,0,0,0,0,0,0,0,0,0,0,0,0,0,0,0,0,0,0,0,0,0,0,0,0,0,0,0,0,0,0,0,0,-2.1376,-2.1377,0,-2.1434,-2.1435,-2.1436,-2.1311,-2.1307,-2.1303,-2.1299,-2.1361,-2.1366,-2.1371,0,0,0,0,0,0,0,0,0,0,0,0,0,-2.1158,-2.1163,-2.1376,-2.1377,-2.1378,-2.1434,-2.1435,-2.1436,-2.1312,-2.1307,-2.1302,-2.1297,-2.1359,-2.1365,-2.1372,0,0,0,0,0,0,0,0,0,0,0,0,0,-2.1239,-2.1165,-2.1376,-2.1323,-2.1318,-2.1434,-2.1435,-2.1436,-2.1313,-2.1307,-2.1301,-2.1295,-2.1357,-2.1365,-2.1373,-2.1544,0,0,-2.1397,-2.1401,0,0,0,0,0,0,0,0,-2.1234,-2.1247,-2.133,-2.1326,-2.1322,-2.1359,-2.1381,-2.1472,-2.1314,-2.1315,-2.1299,-2.1292,-2.1365,-2.1372,-2.1397,-2.1547,-2.155,-2.1398,-2.1403,-2.1407,-2.1409,0,0,0,0,0,0,0,-2.1229,-2.1244,-2.1399,-2.1331,-2.1326,-2.1296,-2.13,-2.1398,-2.1374,-2.1314,-2.1306,-2.1314,-2.1362,-2.1389,-2.1397,-2.155,-2.1398,-2.1405,-2.141,-2.1413,-2.1844,-2.185,0,0,0,0,0,0,-2.123,-2.124,-2.1397,-2.1401,-2.1262,-2.1305,-2.131,-2.1353,-2.1372,-2.1369,-2.1319,-2.1308,-2.1378,-2.1388,-2.1399,-2.1601,-2.1407,-2.1414,-2.1419,-2.1837,-2.1845,-2.1852,0,0,0,0,0,0,-2.1226,-2.1245,-2.1395,-2.1318,-2.1335,-2.1315,-2.1365,-2.1358,-2.1385,-2.1376,-2.1371,-2.1351,-2.1374,-2.1387,-2.1509,-2.1601,-2.1418,-2.1425,-2.183,-2.184,-2.1849,-2.2007,0,0,0,0,0,0,-2.122,-2.1244,-2.1309,-2.132,-2.1339,-2.1505,-2.137,-2.1363,-2.1399,-2.1385,-2.1404,-2.1402,-2.137,-2.1497,-2.1517,-2.1609,-2.1431,-2.1821,-2.1834,-2.1846,-2.1993,-2.2021,-2.2045,0,0,0,0,0,-2.1213,-2.1352,-2.1313,-2.1333,-2.142,-2.151,-2.1521,-2.1481,-2.1407,-2.1472,-2.1466,-2.1401,-2.1588,-2.1511,-2.1532,-2.1628,-2.1815,-2.183,-2.1845,-2.1982,-2.2016,-2.2044,0,0,0,0,0,0,-2.1353,-2.1352,-2.131,-2.1457,-2.1484,-2.1489,-2.157,-2.1518,-2.1568,-2.1553,-2.1501,-2.1507,-2.1638,-2.1644,-2.1559,-2.1794,-2.1689,-2.1709,-2.1786,-2.1818,-2.1843,-2.184,-2.1438,0,0,0,0,0,-2.1401,-2.1474,-2.1469,-2.1599,-2.1615,-2.1591,-2.1628,-2.1595,-2.1622,-2.1633,-2.1636,-2.1665,-2.1729,-2.1774,-2.1833,-2.1993,-2.1996,-2.2069,-2.2095,-2.2116,-2.2134,-2.222,-2.2252,-2.1901,-2.1901,-2.19,0,0,-2.1502,-2.151,-2.1559,-2.1628,-2.1645,-2.1722,-2.1601,-2.1688,-2.1745,-2.1646,-2.1761,-2.1764,-2.1793,-2.1934,-2.1997,-2.1944,-2.2231,-2.2135,-2.2152,-2.2159,-2.2238,-2.2272,-2.2301,-2.1911,-2.1909,-2.1908,0,0,-2.1724,-2.1737,-2.1847,-2.1867,-2.1895,-2.1877,-2.1903,-2.1916,-2.1914,-2.2028,-2.1955,-2.2022,-2.2135,-2.2158,-2.2185,-2.2415,-2.2358,-2.2435,-2.257,-2.2654,-2.2682,-2.2706,-2.2789,-2.2819,-2.2453,-2.2453,-2.2454,0,-2.1846,-2.1958,-2.1911,-2.2002,-2.2035,-2.1948,-2.2059,-2.208,-2.2127,-2.2151,-2.2091,-2.223,-2.2243,-2.2389,-2.2445,-2.2469,-2.2498,-2.2434,-2.2681,-2.2705,-2.2727,-2.2806,-2.2837,-2.2463,-2.2462,-2.2461,-2.246,0,-2.2107,-2.2186,-2.2272,-2.2318,-2.2359,-2.2461,-2.2429,-2.2476,-2.2439,-2.2428,-2.2545,-2.2557,-2.2617,-2.2649,-2.2613,-2.279,-2.2756,-2.269,-2.2583,-2.2771,-2.2844,-2.2874,-2.2476,-2.2473,-2.247,-2.2468,0,0,-2.2422,-2.2439,-2.2472,-2.2491,-2.2515,-2.2575,-2.2672,-2.273,-2.2773,-2.2806,-2.2887,-2.2984,-2.2921,-2.2952,-2.2918,-2.2991,-2.3174,-2.2915,-2.2915,-2.2964,-2.337,-2.3422,-2.3458,-2.3134,-2.314,-2.3144,-2.3368,0,-2.2644,-2.281,-2.2769,-2.2935,-2.3008,-2.2925,-2.3009,-2.3033,-2.3024,-2.3085,-2.3075,-2.3145,-2.3057,-2.3075,-2.3143,-2.3137,-2.3255,-2.312,-2.321,-2.3214,-2.3208,-2.3496,-2.3551,-2.3761,-2.3396,-2.3401,-2.3404,0,-2.2925,-2.2969,-2.3142,-2.3153,-2.3182,-2.3258,-2.3308,-2.3366,-2.3391,-2.338,-2.3413,-2.3364,-2.346,-2.3351,-2.3482,-2.3392,-2.3425,-2.3428,-2.3435,-2.3444,-2.3323,-2.3514,-2.3827,-2.386,-2.3449,-2.3445,-2.3442,0,-2.314,-2.3242,-2.3358,-2.3378,-2.3393,-2.3449,-2.3458,-2.3476,-2.3514,-2.3557,-2.358,-2.3634,-2.3665,-2.3708,-2.3675,-2.3598,-2.3812,-2.37,-2.3806,-2.3807,-2.3857,-2.3855,-2.4183,-2.3876,-2.3876,-2.3875,-2.3874,0,-2.3393,-2.3502,-2.3455,-2.3527,-2.3647,-2.3598,-2.3718,-2.3717,-2.3734,-2.3805,-2.3736,-2.3804,-2.3755,-2.3818,-2.3793,-2.3906,-2.392,-2.3914,-2.3906,-2.3921,-2.3923,-2.3945,-2.393,-2.3883,-2.3882,-2.388,-2.3878,0,-2.3654,-2.3627,-2.3749,-2.3752,-2.3756,-2.3844,-2.3847,-2.3914,-2.3899,-2.3989,-2.4008,-2.3986,-2.4057,-2.4027,-2.4102,-2.4085,-2.4231,-2.4203,-2.4223,-2.4216,-2.4325,-2.4316,-2.4681,-2.4726,-2.4389,-2.4392,-2.4395,0,-2.3818,-2.39,-2.3912,-2.3954,-2.3968,-2.4037,-2.4074,-2.4029,-2.4071,-2.4104,-2.4167,-2.4232,-2.4282,-2.4399,-2.439,-2.4447,-2.4421,-2.4544,-2.4429,-2.4442,-2.4424,-2.4421,-2.4429,-2.4568,-2.4572,-2.4575,-2.4578,0,-2.4113,-2.4095,-2.4152,-2.4204,-2.4251,-2.4289,-2.4322,-2.436,-2.4316,-2.4367,-2.4438,-2.4477,-2.4553,-2.4618,-2.4669,-2.4677,-2.4622,-2.4614,-2.4642,-2.466,-2.4668,-2.4666,-2.4288,-2.4606,-2.4604,-2.4602,-2.46,-2.4599,-2.4332,-2.4401,-2.4421,-2.4486,-2.4505,-2.4537,-2.46,-2.4593,-2.4652,-2.471,-2.4679,-2.4763,-2.4784,-2.4845,-2.4862,-2.4927,-2.4878,-2.4918,-2.4929,-2.494,-2.4955,-2.4656,-2.4935,-2.4934,-2.4934,-2.4933,-2.4932,0,-2.4625,-2.4633,-2.4693,-2.4741,-2.4792,-2.4733,-2.4765,-2.4813,-2.4887,-2.4911,-2.4961,-2.5043,-2.5106,-2.5101,-2.5158,-2.5211,-2.5187,-2.5228,-2.5225,-2.5228,-2.4994,-2.4965,-2.5247,-2.5247,-2.5247,-2.5247,-2.5247,-2.5246,-2.4784,-2.4898,-2.4882,-2.5005,-2.5011,-2.5092,-2.5116,-2.5146,-2.5165,-2.5259,-2.5311,-2.5306,-2.5319,-2.5377,-2.5432,-2.5428,-2.5454,-2.5505,-2.5493,-2.5275,-2.5244,-2.5215,-2.5187,-2.5511,-2.5511,-2.5721,-2.5723,-2.5724]},{"header":{"parameterUnit":"m.s-1","parameterCategory":1,"la1":30.2991,"la2":30.254,"lo1":-89.0895,"lo2":-89.0444,"dy":0.0017,"dx":0.0017,"nx":28,"ny":28,"refTime":"2023-09-17T03:00:00:Z","depth":0,"parameterNumber":3,"parameterNumberName":"V-component_of_WINDS"},"data":[0,0,0,0,0,0,0,0,0,0,0,0,0,0,0,0,0,0,0,0,0,0,0,0,0,0,0,0,0,0,0,0,0,0,0,0,0,0,0,0,0,0,0,0,0,0,0,0,0,0,0,0,0,0,0,0,0,0,-3.3697,-3.3697,0,-3.3766,-3.3766,-3.3767,-3.3707,-3.3705,-3.3702,-3.37,-3.3768,-3.3772,-3.3776,0,0,0,0,0,0,0,0,0,0,0,0,0,-3.351,-3.3514,-3.3696,-3.3697,-3.3698,-3.3765,-3.3766,-3.3767,-3.3707,-3.3704,-3.3701,-3.3699,-3.3767,-3.3772,-3.3777,0,0,0,0,0,0,0,0,0,0,0,0,0,-3.3586,-3.3515,-3.3696,-3.3676,-3.3675,-3.3765,-3.3766,-3.3768,-3.3708,-3.3704,-3.3701,-3.3697,-3.3765,-3.3771,-3.3777,-3.389,0,0,-3.3796,-3.3799,0,0,0,0,0,0,0,0,-3.3582,-3.3593,-3.3679,-3.3678,-3.3677,-3.3724,-3.3726,-3.3809,-3.3709,-3.3696,-3.37,-3.3695,-3.3756,-3.3763,-3.3784,-3.3893,-3.3896,-3.3797,-3.3801,-3.3803,-3.3805,0,0,0,0,0,0,0,-3.3577,-3.359,-3.3724,-3.368,-3.3679,-3.3663,-3.367,-3.3741,-3.3746,-3.3696,-3.3692,-3.3701,-3.3755,-3.3778,-3.3785,-3.3897,-3.3797,-3.3802,-3.3806,-3.3808,-3.4101,-3.4105,0,0,0,0,0,0,-3.3574,-3.3586,-3.3721,-3.3726,-3.3619,-3.367,-3.3677,-3.3713,-3.3745,-3.3746,-3.3705,-3.3698,-3.377,-3.3778,-3.3787,-3.3921,-3.3803,-3.3809,-3.3813,-3.4097,-3.4102,-3.4107,0,0,0,0,0,0,-3.357,-3.3587,-3.3719,-3.3655,-3.367,-3.3677,-3.3717,-3.3716,-3.3739,-3.3751,-3.3751,-3.3727,-3.3767,-3.3779,-3.3865,-3.3923,-3.3812,-3.3817,-3.4093,-3.4099,-3.4104,-3.419,0,0,0,0,0,0,-3.3565,-3.3586,-3.3629,-3.3656,-3.3674,-3.3796,-3.3721,-3.372,-3.375,-3.3743,-3.3773,-3.3774,-3.3765,-3.3856,-3.3871,-3.3929,-3.3822,-3.4087,-3.4095,-3.4103,-3.4182,-3.4198,-3.4212,0,0,0,0,0,-3.3559,-3.365,-3.3632,-3.3648,-3.3729,-3.38,-3.381,-3.3798,-3.3755,-3.3798,-3.3806,-3.3773,-3.3914,-3.3865,-3.3882,-3.3943,-3.4084,-3.4093,-3.4102,-3.4175,-3.4195,-3.4212,0,0,0,0,0,0,-3.3628,-3.3653,-3.3633,-3.3736,-3.3766,-3.3789,-3.3844,-3.3819,-3.3862,-3.3853,-3.3836,-3.3843,-3.3935,-3.3947,-3.3892,-3.4053,-3.3992,-3.4005,-3.4042,-3.4061,-3.4076,-3.4071,-3.3827,0,0,0,0,0,-3.3656,-3.3712,-3.373,-3.3819,-3.3836,-3.3837,-3.3868,-3.3856,-3.3887,-3.3899,-3.3913,-3.3943,-3.3994,-3.4028,-3.4075,-3.4183,-3.4189,-3.4233,-3.4248,-3.4261,-3.4272,-3.433,-3.435,-3.4137,-3.4137,-3.4136,0,0,-3.3713,-3.3733,-3.377,-3.3834,-3.3856,-3.3914,-3.3848,-3.3913,-3.3955,-3.3908,-3.3991,-3.4002,-3.4035,-3.4132,-3.4176,-3.4146,-3.4332,-3.4272,-3.4282,-3.4287,-3.4342,-3.4362,-3.438,-3.4143,-3.4142,-3.4141,0,0,-3.3847,-3.3869,-3.3945,-3.3969,-3.4003,-3.4004,-3.4022,-3.4049,-3.4055,-3.4138,-3.4104,-3.4154,-3.4242,-3.4267,-3.4291,-3.4434,-3.4406,-3.445,-3.4529,-3.4586,-3.4602,-3.4617,-3.4669,-3.4687,-3.4461,-3.4462,-3.4462,0,-3.3914,-3.4001,-3.3987,-3.4055,-3.4083,-3.4044,-3.4121,-3.4144,-3.4193,-3.4213,-3.4178,-3.4289,-3.4308,-3.441,-3.4446,-3.4466,-3.4486,-3.4447,-3.4601,-3.4616,-3.463,-3.4678,-3.4698,-3.4467,-3.4466,-3.4466,-3.4465,0,-3.4081,-3.4142,-3.42,-3.4248,-3.4283,-3.4355,-3.4352,-3.4389,-3.4374,-3.4378,-3.4463,-3.4484,-3.4535,-3.4559,-3.4545,-3.466,-3.464,-3.4604,-3.4542,-3.4655,-3.4701,-3.4719,-3.4474,-3.4472,-3.4471,-3.4469,0,0,-3.4262,-3.4302,-3.4323,-3.4345,-3.438,-3.4426,-3.4496,-3.4547,-3.4579,-3.4613,-3.4671,-3.4747,-3.4714,-3.4741,-3.4729,-3.4779,-3.4891,-3.4736,-3.4737,-3.4765,-3.502,-3.5047,-3.5069,-3.4872,-3.4876,-3.4879,-3.5017,0,-3.4397,-3.452,-3.4509,-3.4625,-3.4681,-3.4644,-3.4704,-3.4732,-3.4738,-3.4785,-3.479,-3.4844,-3.4796,-3.4813,-3.486,-3.4868,-3.4942,-3.4857,-3.4926,-3.4928,-3.4919,-3.5093,-3.5122,-3.5252,-3.5035,-3.5038,-3.504,0,-3.4572,-3.4614,-3.4735,-3.4762,-3.4785,-3.484,-3.4886,-3.4932,-3.4962,-3.4962,-3.4993,-3.4973,-3.5042,-3.4979,-3.5074,-3.5017,-3.5044,-3.5052,-3.5056,-3.5062,-3.4991,-3.5104,-3.5293,-3.5313,-3.5068,-3.5066,-3.5064,0,-3.4692,-3.4778,-3.4862,-3.4881,-3.4915,-3.4954,-3.497,-3.4997,-3.5028,-3.5067,-3.5088,-3.5135,-3.516,-3.5197,-3.519,-3.5144,-3.5287,-3.5223,-3.5289,-3.529,-3.5321,-3.532,-3.5518,-3.5338,-3.5338,-3.5338,-3.5337,0,-3.4845,-3.4921,-3.4916,-3.4968,-3.5052,-3.5038,-3.5121,-3.5132,-3.5156,-3.5208,-3.5179,-3.5229,-3.5216,-3.5265,-3.5259,-3.5339,-3.5351,-3.5353,-3.5351,-3.5356,-3.5356,-3.5374,-3.5365,-3.5343,-3.5342,-3.5341,-3.534,0,-3.4994,-3.4994,-3.5083,-3.5107,-3.5115,-3.5175,-3.5196,-3.5244,-3.5247,-3.5314,-3.5328,-3.5333,-3.5389,-3.5385,-3.5449,-3.5445,-3.5544,-3.5531,-3.5534,-3.5531,-3.5598,-3.5592,-3.5815,-3.5844,-3.5645,-3.5647,-3.5649,0,-3.5092,-3.5149,-3.518,-3.5214,-3.5232,-3.5286,-3.5318,-3.5307,-3.5341,-3.538,-3.5424,-3.5478,-3.552,-3.5612,-3.562,-3.5668,-3.5656,-3.5731,-3.5663,-3.5667,-3.5658,-3.5655,-3.5661,-3.5744,-3.5747,-3.5748,-3.575,0,-3.5266,-3.5263,-3.5311,-3.5359,-3.5398,-3.5435,-3.5469,-3.5497,-3.549,-3.553,-3.5587,-3.562,-3.5685,-3.5739,-3.5785,-3.58,-3.5774,-3.5771,-3.5789,-3.5796,-3.5795,-3.5797,-3.5571,-3.5766,-3.5765,-3.5763,-3.5763,-3.5762,-3.5392,-3.5442,-3.5471,-3.5525,-3.555,-3.5582,-3.5629,-3.5638,-3.5686,-3.5738,-3.5728,-3.5793,-3.5822,-3.5881,-3.59,-3.595,-3.5923,-3.5949,-3.5956,-3.5963,-3.5971,-3.5787,-3.5958,-3.5958,-3.5957,-3.5957,-3.5957,0,-3.5565,-3.5582,-3.5632,-3.5681,-3.5723,-3.5696,-3.5731,-3.5769,-3.5826,-3.5855,-3.5898,-3.5964,-3.6016,-3.6029,-3.6078,-3.6116,-3.6105,-3.6129,-3.6127,-3.6131,-3.5992,-3.5971,-3.6137,-3.6137,-3.6137,-3.6137,-3.6137,-3.6137,-3.566,-3.5743,-3.5743,-3.5837,-3.5853,-3.5917,-3.594,-3.597,-3.5993,-3.6068,-3.6112,-3.612,-3.6142,-3.6193,-3.6239,-3.6241,-3.6261,-3.629,-3.6288,-3.6158,-3.614,-3.6123,-3.6104,-3.6295,-3.6295,-3.6423,-3.6424,-3.6425]}]]